Track STARLINK-2443 now! 10-day predictions STARLINK-2443 is classified as:
1 48107U 21027R 22186.34733038 -.00001707 00000-0 -95766-4 0 9996 2 48107 53.0570 62.1246 0001626 79.8816 280.2356 15.06390902 70229